Year,Month,Day,Hour,Minute,Value (Times are PST for temperature in C)
2015,08,13,00,00,17.40
2015,08,13,00,01,17.30
2015,08,13,00,02,17.20
2015,08,13,00,03,17.20
2015,08,13,00,04,17.30
2015,08,13,00,05,17.40
2015,08,13,00,06,17.50
2015,08,13,00,07,17.60
2015,08,13,00,08,17.70
2015,08,13,00,09,17.90
2015,08,13,00,10,18.00
2015,08,13,00,11,18.10
2015,08,13,00,12,18.20
2015,08,13,00,13,18.30
2015,08,13,00,14,18.40
2015,08,13,00,15,18.40
2015,08,13,00,16,18.50
2015,08,13,00,17,18.60
2015,08,13,00,18,18.60
2015,08,13,00,19,18.60
2015,08,13,00,20,18.60
2015,08,13,00,21,18.60
2015,08,13,00,22,18.60
2015,08,13,00,23,18.50
2015,08,13,00,24,18.50
2015,08,13,00,25,18.50
2015,08,13,00,26,18.50
2015,08,13,00,27,18.50
2015,08,13,00,28,18.50
2015,08,13,00,29,18.50
2015,08,13,00,30,18.50
2015,08,13,00,31,18.50
2015,08,13,00,32,18.50
2015,08,13,00,33,18.40
2015,08,13,00,34,18.40
2015,08,13,00,35,18.40
2015,08,13,00,36,18.40
2015,08,13,00,37,18.30
2015,08,13,00,38,18.30
2015,08,13,00,39,18.30
2015,08,13,00,40,18.30
2015,08,13,00,41,18.30
2015,08,13,00,42,18.30
2015,08,13,00,43,18.40
2015,08,13,00,44,18.40
2015,08,13,00,45,18.40
2015,08,13,00,46,18.40
2015,08,13,00,47,18.40
2015,08,13,00,48,18.50
2015,08,13,00,49,18.50
2015,08,13,00,50,18.50
2015,08,13,00,51,18.50
2015,08,13,00,52,18.40
2015,08,13,00,53,18.40
2015,08,13,00,54,18.40
2015,08,13,00,55,18.30
2015,08,13,00,56,18.30
2015,08,13,00,57,18.30
2015,08,13,00,58,18.30
2015,08,13,00,59,18.30
2015,08,13,01,00,18.30
2015,08,13,01,01,18.30
2015,08,13,01,02,18.30
2015,08,13,01,03,18.30
2015,08,13,01,04,18.30
2015,08,13,01,05,18.30
2015,08,13,01,06,18.30
2015,08,13,01,07,18.30
2015,08,13,01,08,18.30
2015,08,13,01,09,18.30
2015,08,13,01,10,18.30
2015,08,13,01,11,18.30
2015,08,13,01,12,18.30
2015,08,13,01,13,18.30
2015,08,13,01,14,18.30
2015,08,13,01,15,18.30
2015,08,13,01,16,18.30
2015,08,13,01,17,18.30
2015,08,13,01,18,18.30
2015,08,13,01,19,18.30
2015,08,13,01,20,18.30
2015,08,13,01,21,18.30
2015,08,13,01,22,18.30
2015,08,13,01,23,18.30
2015,08,13,01,24,18.30
2015,08,13,01,25,18.30
2015,08,13,01,26,18.30
2015,08,13,01,27,18.30
2015,08,13,01,28,18.20
2015,08,13,01,29,18.20
2015,08,13,01,30,18.10
2015,08,13,01,31,18.10
2015,08,13,01,32,18.10
2015,08,13,01,33,18.10
2015,08,13,01,34,18.10
2015,08,13,01,35,18.10
2015,08,13,01,36,18.10
2015,08,13,01,37,18.20
2015,08,13,01,38,18.20
2015,08,13,01,39,18.20
2015,08,13,01,40,18.20
2015,08,13,01,41,18.20
2015,08,13,01,42,18.20
2015,08,13,01,43,18.10
2015,08,13,01,44,18.00
2015,08,13,01,45,17.90
2015,08,13,01,46,17.90
2015,08,13,01,47,17.80
2015,08,13,01,48,17.80
2015,08,13,01,49,17.80
2015,08,13,01,50,17.70
2015,08,13,01,51,17.70
2015,08,13,01,52,17.70
2015,08,13,01,53,17.70
2015,08,13,01,54,17.70
2015,08,13,01,55,17.70
2015,08,13,01,56,17.70
2015,08,13,01,57,17.80
2015,08,13,01,58,17.80
2015,08,13,01,59,17.80
2015,08,13,02,00,17.90
2015,08,13,02,01,17.90
2015,08,13,02,02,17.90
2015,08,13,02,03,18.00
2015,08,13,02,04,18.00
2015,08,13,02,05,18.00
2015,08,13,02,06,18.10
2015,08,13,02,07,18.10
2015,08,13,02,08,18.10
2015,08,13,02,09,18.10
2015,08,13,02,10,18.10
2015,08,13,02,11,18.20
2015,08,13,02,12,18.20
2015,08,13,02,13,18.20
2015,08,13,02,14,18.20
2015,08,13,02,15,18.20
2015,08,13,02,16,18.20
2015,08,13,02,17,18.20
2015,08,13,02,18,18.20
2015,08,13,02,19,18.10
2015,08,13,02,20,18.10
2015,08,13,02,21,18.00
2015,08,13,02,22,18.00
2015,08,13,02,23,17.90
2015,08,13,02,24,17.90
2015,08,13,02,25,17.90
2015,08,13,02,26,17.90
2015,08,13,02,27,17.90
2015,08,13,02,28,17.90
2015,08,13,02,29,17.90
2015,08,13,02,30,17.90
2015,08,13,02,31,17.90
2015,08,13,02,32,17.90
2015,08,13,02,33,17.90
2015,08,13,02,34,17.90
2015,08,13,02,35,17.90
2015,08,13,02,36,17.90
2015,08,13,02,37,17.80
2015,08,13,02,38,17.80
2015,08,13,02,39,17.80
2015,08,13,02,40,17.80
2015,08,13,02,41,17.80
2015,08,13,02,42,17.80
2015,08,13,02,43,17.80
2015,08,13,02,44,17.80
2015,08,13,02,45,17.80
2015,08,13,02,46,17.80
2015,08,13,02,47,17.80
2015,08,13,02,48,17.80
2015,08,13,02,49,17.80
2015,08,13,02,50,17.80
2015,08,13,02,51,17.90
2015,08,13,02,52,17.90
2015,08,13,02,53,17.90
2015,08,13,02,54,17.90
2015,08,13,02,55,17.90
2015,08,13,02,56,18.00
2015,08,13,02,57,18.00
2015,08,13,02,58,18.00
2015,08,13,02,59,18.10
2015,08,13,03,00,18.10
2015,08,13,03,01,18.00
2015,08,13,03,02,18.00
2015,08,13,03,03,18.00
2015,08,13,03,04,18.00
2015,08,13,03,05,18.00
2015,08,13,03,06,18.00
2015,08,13,03,07,18.00
2015,08,13,03,08,17.90
2015,08,13,03,09,18.00
2015,08,13,03,10,18.00
2015,08,13,03,11,17.90
2015,08,13,03,12,17.90
2015,08,13,03,13,17.90
2015,08,13,03,14,17.80
2015,08,13,03,15,17.80
2015,08,13,03,16,17.70
2015,08,13,03,17,17.70
2015,08,13,03,18,17.60
2015,08,13,03,19,17.60
2015,08,13,03,20,17.60
2015,08,13,03,21,17.50
2015,08,13,03,22,17.50
2015,08,13,03,23,17.40
2015,08,13,03,24,17.40
2015,08,13,03,25,17.40
2015,08,13,03,26,17.30
2015,08,13,03,27,17.20
2015,08,13,03,28,17.20
2015,08,13,03,29,17.10
2015,08,13,03,30,17.00
2015,08,13,03,31,16.90
2015,08,13,03,32,16.90
2015,08,13,03,33,16.80
2015,08,13,03,34,16.80
2015,08,13,03,35,16.70
2015,08,13,03,36,16.70
2015,08,13,03,37,16.60
2015,08,13,03,38,16.60
2015,08,13,03,39,16.50
2015,08,13,03,40,16.50
2015,08,13,03,41,16.40
2015,08,13,03,42,16.40
2015,08,13,03,43,16.30
2015,08,13,03,44,16.30
2015,08,13,03,45,16.30
2015,08,13,03,46,16.30
2015,08,13,03,47,16.20
2015,08,13,03,48,16.20
2015,08,13,03,49,16.10
2015,08,13,03,50,16.10
2015,08,13,03,51,16.00
2015,08,13,03,52,16.00
2015,08,13,03,53,15.90
2015,08,13,03,54,15.90
2015,08,13,03,55,15.90
2015,08,13,03,56,15.80
2015,08,13,03,57,15.80
2015,08,13,03,58,15.80
2015,08,13,03,59,15.70
2015,08,13,04,00,15.70
2015,08,13,04,01,15.70
2015,08,13,04,02,15.60
2015,08,13,04,03,15.60
2015,08,13,04,04,15.60
2015,08,13,04,05,15.60
2015,08,13,04,06,15.50
2015,08,13,04,07,15.50
2015,08,13,04,08,15.50
2015,08,13,04,09,15.50
2015,08,13,04,10,15.50
2015,08,13,04,11,15.40
2015,08,13,04,12,15.40
2015,08,13,04,13,15.40
2015,08,13,04,14,15.40
2015,08,13,04,15,15.40
2015,08,13,04,16,15.40
2015,08,13,04,17,15.40
2015,08,13,04,18,15.40
2015,08,13,04,19,15.30
2015,08,13,04,20,15.30
2015,08,13,04,21,15.30
2015,08,13,04,22,15.30
2015,08,13,04,23,15.30
2015,08,13,04,24,15.30
2015,08,13,04,25,15.30
2015,08,13,04,26,15.30
2015,08,13,04,27,15.30
2015,08,13,04,28,15.30
2015,08,13,04,29,15.20
2015,08,13,04,30,15.20
2015,08,13,04,31,15.20
2015,08,13,04,32,15.20
2015,08,13,04,33,15.20
2015,08,13,04,34,15.20
2015,08,13,04,35,15.10
2015,08,13,04,36,15.10
2015,08,13,04,37,15.10
2015,08,13,04,38,15.10
2015,08,13,04,39,15.10
2015,08,13,04,40,15.00
2015,08,13,04,41,15.00
2015,08,13,04,42,15.00
2015,08,13,04,43,15.00
2015,08,13,04,44,14.90
2015,08,13,04,45,14.90
2015,08,13,04,46,14.90
2015,08,13,04,47,14.90
2015,08,13,04,48,14.90
2015,08,13,04,49,14.90
2015,08,13,04,50,14.90
2015,08,13,04,51,14.80
2015,08,13,04,52,14.80
2015,08,13,04,53,14.80
2015,08,13,04,54,14.80
2015,08,13,04,55,14.80
2015,08,13,04,56,14.80
2015,08,13,04,57,14.80
2015,08,13,04,58,14.80
2015,08,13,04,59,14.80
2015,08,13,05,00,14.80
2015,08,13,05,01,14.80
2015,08,13,05,02,14.80
2015,08,13,05,03,14.80
2015,08,13,05,04,14.80
2015,08,13,05,05,14.80
2015,08,13,05,06,14.70
2015,08,13,05,07,14.70
2015,08,13,05,08,14.70
2015,08,13,05,09,14.70
2015,08,13,05,10,14.70
2015,08,13,05,11,14.70
2015,08,13,05,12,14.70
2015,08,13,05,13,14.70
2015,08,13,05,14,14.70
2015,08,13,05,15,14.70
2015,08,13,05,16,14.70
2015,08,13,05,17,14.70
2015,08,13,05,18,14.70
2015,08,13,05,19,14.70
2015,08,13,05,20,14.70
2015,08,13,05,21,14.70
2015,08,13,05,22,14.70
2015,08,13,05,23,14.80
2015,08,13,05,24,14.80
2015,08,13,05,25,14.80
2015,08,13,05,26,14.80
2015,08,13,05,27,14.80
2015,08,13,05,28,14.80
2015,08,13,05,29,14.80
2015,08,13,05,30,14.80
2015,08,13,05,31,14.80
2015,08,13,05,32,14.80
2015,08,13,05,33,14.90
2015,08,13,05,34,14.90
2015,08,13,05,35,14.90
2015,08,13,05,36,14.90
2015,08,13,05,37,14.90
2015,08,13,05,38,14.90
2015,08,13,05,39,14.90
2015,08,13,05,40,14.90
2015,08,13,05,41,14.90
2015,08,13,05,42,14.90
2015,08,13,05,43,14.90
2015,08,13,05,44,14.90
2015,08,13,05,45,14.90
2015,08,13,05,46,14.90
2015,08,13,05,47,14.90
2015,08,13,05,48,14.90
2015,08,13,05,49,14.90
2015,08,13,05,50,14.90
2015,08,13,05,51,14.90
2015,08,13,05,52,14.90
2015,08,13,05,53,14.90
2015,08,13,05,54,14.80
2015,08,13,05,55,14.80
2015,08,13,05,56,14.80
2015,08,13,05,57,14.80
2015,08,13,05,58,14.80
2015,08,13,05,59,14.80
2015,08,13,06,00,14.80
2015,08,13,06,01,14.70
2015,08,13,06,02,14.70
2015,08,13,06,03,14.70
2015,08,13,06,04,14.70
2015,08,13,06,05,14.70
2015,08,13,06,06,14.70
2015,08,13,06,07,14.70
2015,08,13,06,08,14.70
2015,08,13,06,09,14.70
2015,08,13,06,10,14.70
2015,08,13,06,11,14.70
2015,08,13,06,12,14.60
2015,08,13,06,13,14.60
2015,08,13,06,14,14.60
2015,08,13,06,15,14.60
2015,08,13,06,16,14.50
2015,08,13,06,17,14.50
2015,08,13,06,18,14.50
2015,08,13,06,19,14.50
2015,08,13,06,20,14.50
2015,08,13,06,21,14.40
2015,08,13,06,22,14.40
2015,08,13,06,23,14.40
2015,08,13,06,24,14.50
2015,08,13,06,25,14.50
2015,08,13,06,26,14.50
2015,08,13,06,27,14.50
2015,08,13,06,28,14.40
2015,08,13,06,29,14.40
2015,08,13,06,30,14.40
2015,08,13,06,31,14.40
2015,08,13,06,32,14.40
2015,08,13,06,33,14.40
2015,08,13,06,34,14.40
2015,08,13,06,35,14.30
2015,08,13,06,36,14.30
2015,08,13,06,37,14.30
2015,08,13,06,38,14.30
2015,08,13,06,39,14.30
2015,08,13,06,40,14.30
2015,08,13,06,41,14.30
2015,08,13,06,42,14.30
2015,08,13,06,43,14.30
2015,08,13,06,44,14.20
2015,08,13,06,45,14.20
2015,08,13,06,46,14.20
2015,08,13,06,47,14.20
2015,08,13,06,48,14.20
2015,08,13,06,49,14.20
2015,08,13,06,50,14.20
2015,08,13,06,51,14.20
2015,08,13,06,52,14.20
2015,08,13,06,53,14.20
2015,08,13,06,54,14.20
2015,08,13,06,55,14.20
2015,08,13,06,56,14.20
2015,08,13,06,57,14.20
2015,08,13,06,58,14.20
2015,08,13,06,59,14.20
2015,08,13,07,00,14.20
2015,08,13,07,01,14.20
2015,08,13,07,02,14.20
2015,08,13,07,03,14.20
2015,08,13,07,04,14.20
2015,08,13,07,05,14.20
2015,08,13,07,06,14.20
2015,08,13,07,07,14.20
2015,08,13,07,08,14.20
2015,08,13,07,09,14.20
2015,08,13,07,10,14.30
2015,08,13,07,11,14.30
2015,08,13,07,12,14.30
2015,08,13,07,13,14.40
2015,08,13,07,14,14.40
2015,08,13,07,15,14.50
2015,08,13,07,16,14.50
2015,08,13,07,17,14.60
2015,08,13,07,18,14.60
2015,08,13,07,19,14.60
2015,08,13,07,20,14.70
2015,08,13,07,21,14.70
2015,08,13,07,22,14.80
2015,08,13,07,23,14.80
2015,08,13,07,24,14.90
2015,08,13,07,25,15.00
2015,08,13,07,26,15.00
2015,08,13,07,27,15.10
2015,08,13,07,28,15.10
2015,08,13,07,29,15.20
2015,08,13,07,30,15.20
2015,08,13,07,31,15.30
2015,08,13,07,32,15.30
2015,08,13,07,33,15.40
2015,08,13,07,34,15.40
2015,08,13,07,35,15.50
2015,08,13,07,36,15.60
2015,08,13,07,37,15.60
2015,08,13,07,38,15.70
2015,08,13,07,39,15.70
2015,08,13,07,40,15.80
2015,08,13,07,41,15.80
2015,08,13,07,42,15.80
2015,08,13,07,43,15.90
2015,08,13,07,44,15.90
2015,08,13,07,45,15.90
2015,08,13,07,46,16.00
2015,08,13,07,47,16.00
2015,08,13,07,48,16.00
2015,08,13,07,49,16.10
2015,08,13,07,50,16.10
2015,08,13,07,51,16.10
2015,08,13,07,52,16.10
2015,08,13,07,53,16.20
2015,08,13,07,54,16.20
2015,08,13,07,55,16.20
2015,08,13,07,56,16.20
2015,08,13,07,57,16.20
2015,08,13,07,58,16.20
2015,08,13,07,59,16.30
2015,08,13,08,00,16.30
2015,08,13,08,01,16.30
2015,08,13,08,02,16.30
2015,08,13,08,03,16.40
2015,08,13,08,04,16.40
2015,08,13,08,05,16.40
2015,08,13,08,06,16.40
2015,08,13,08,07,16.50
2015,08,13,08,08,16.50
2015,08,13,08,09,16.60
2015,08,13,08,10,16.60
2015,08,13,08,11,16.60
2015,08,13,08,12,16.60
2015,08,13,08,13,16.60
2015,08,13,08,14,16.70
2015,08,13,08,15,16.70
2015,08,13,08,16,16.70
2015,08,13,08,17,16.70
2015,08,13,08,18,16.70
2015,08,13,08,19,16.80
2015,08,13,08,20,16.80
2015,08,13,08,21,16.80
2015,08,13,08,22,16.90
2015,08,13,08,23,16.90
2015,08,13,08,24,16.90
2015,08,13,08,25,16.90
2015,08,13,08,26,17.00
2015,08,13,08,27,17.00
2015,08,13,08,28,17.10
2015,08,13,08,29,17.10
2015,08,13,08,30,17.20
2015,08,13,08,31,17.20
2015,08,13,08,32,17.20
2015,08,13,08,33,17.30
2015,08,13,08,34,17.30
2015,08,13,08,35,17.30
2015,08,13,08,36,17.40
2015,08,13,08,37,17.40
2015,08,13,08,38,17.50
2015,08,13,08,39,17.60
2015,08,13,08,40,17.60
2015,08,13,08,41,17.70
2015,08,13,08,42,17.70
2015,08,13,08,43,17.80
2015,08,13,08,44,17.80
2015,08,13,08,45,17.90
2015,08,13,08,46,17.90
2015,08,13,08,47,18.00
2015,08,13,08,48,18.00
2015,08,13,08,49,18.10
2015,08,13,08,50,18.10
2015,08,13,08,51,18.20
2015,08,13,08,52,18.20
2015,08,13,08,53,18.30
2015,08,13,08,54,18.30
2015,08,13,08,55,18.30
2015,08,13,08,56,18.30
2015,08,13,08,57,18.40
2015,08,13,08,58,18.40
2015,08,13,08,59,18.40
2015,08,13,09,00,18.40
2015,08,13,09,01,18.40
2015,08,13,09,02,18.40
2015,08,13,09,03,18.30
2015,08,13,09,04,18.20
2015,08,13,09,05,18.10
2015,08,13,09,06,18.00
2015,08,13,09,07,17.90
2015,08,13,09,08,17.90
2015,08,13,09,09,17.90
2015,08,13,09,10,17.90
2015,08,13,09,11,17.90
2015,08,13,09,12,17.80
2015,08,13,09,13,17.80
2015,08,13,09,14,17.80
2015,08,13,09,15,17.80
2015,08,13,09,16,17.80
2015,08,13,09,17,17.80
2015,08,13,09,18,17.80
2015,08,13,09,19,17.80
2015,08,13,09,20,17.70
2015,08,13,09,21,17.70
2015,08,13,09,22,17.70
2015,08,13,09,23,17.60
2015,08,13,09,24,17.60
2015,08,13,09,25,17.60
2015,08,13,09,26,17.60
2015,08,13,09,27,17.60
2015,08,13,09,28,17.70
2015,08,13,09,29,17.70
2015,08,13,09,30,17.70
2015,08,13,09,31,17.80
2015,08,13,09,32,17.80
2015,08,13,09,33,17.80
2015,08,13,09,34,17.80
2015,08,13,09,35,17.80
2015,08,13,09,36,17.90
2015,08,13,09,37,17.90
2015,08,13,09,38,17.90
2015,08,13,09,39,18.00
2015,08,13,09,40,18.00
2015,08,13,09,41,18.10
2015,08,13,09,42,18.20
2015,08,13,09,43,18.20
2015,08,13,09,44,18.20
2015,08,13,09,45,18.20
2015,08,13,09,46,18.20
2015,08,13,09,47,18.20
2015,08,13,09,48,18.10
2015,08,13,09,49,18.10
2015,08,13,09,50,18.10
2015,08,13,09,51,18.10
2015,08,13,09,52,18.10
2015,08,13,09,53,18.10
2015,08,13,09,54,18.20
2015,08,13,09,55,18.20
2015,08,13,09,56,18.20
2015,08,13,09,57,18.30
2015,08,13,09,58,18.40
2015,08,13,09,59,18.40
2015,08,13,10,00,18.50
2015,08,13,10,01,18.60
2015,08,13,10,02,18.60
2015,08,13,10,03,18.70
2015,08,13,10,04,18.70
2015,08,13,10,05,18.70
2015,08,13,10,06,18.70
2015,08,13,10,07,18.80
2015,08,13,10,08,18.80
2015,08,13,10,09,18.70
2015,08,13,10,10,18.70
2015,08,13,10,11,18.80
2015,08,13,10,12,18.80
2015,08,13,10,13,18.80
2015,08,13,10,14,18.80
2015,08,13,10,15,18.80
2015,08,13,10,16,18.80
2015,08,13,10,17,18.80
2015,08,13,10,18,18.90
2015,08,13,10,19,18.90
2015,08,13,10,20,19.00
2015,08,13,10,21,19.00
2015,08,13,10,22,19.10
2015,08,13,10,23,19.10
2015,08,13,10,24,19.00
2015,08,13,10,25,19.10
2015,08,13,10,26,19.10
2015,08,13,10,27,19.10
2015,08,13,10,28,19.10
2015,08,13,10,29,19.10
2015,08,13,10,30,19.10
2015,08,13,10,31,19.20
2015,08,13,10,32,19.30
2015,08,13,10,33,19.30
2015,08,13,10,34,19.40
2015,08,13,10,35,19.40
2015,08,13,10,36,19.50
2015,08,13,10,37,19.60
2015,08,13,10,38,19.60
2015,08,13,10,39,19.60
2015,08,13,10,40,19.50
2015,08,13,10,41,19.40
2015,08,13,10,42,19.30
2015,08,13,10,43,19.20
2015,08,13,10,44,19.10
2015,08,13,10,45,19.10
2015,08,13,10,46,19.10
2015,08,13,10,47,19.00
2015,08,13,10,48,19.00
2015,08,13,10,49,19.00
2015,08,13,10,50,19.00
2015,08,13,10,51,19.00
2015,08,13,10,52,19.10
2015,08,13,10,53,19.10
2015,08,13,10,54,19.10
2015,08,13,10,55,19.10
2015,08,13,10,56,19.10
2015,08,13,10,57,19.10
2015,08,13,10,58,19.00
2015,08,13,10,59,19.00
2015,08,13,11,00,19.10
2015,08,13,11,01,19.10
2015,08,13,11,02,19.10
2015,08,13,11,03,19.10
2015,08,13,11,04,19.10
2015,08,13,11,05,19.20
2015,08,13,11,06,19.20
2015,08,13,11,07,19.30
2015,08,13,11,08,19.30
2015,08,13,11,09,19.30
2015,08,13,11,10,19.30
2015,08,13,11,11,19.30
2015,08,13,11,12,19.40
2015,08,13,11,13,19.40
2015,08,13,11,14,19.40
2015,08,13,11,15,19.50
2015,08,13,11,16,19.40
2015,08,13,11,17,19.40
2015,08,13,11,18,19.40
2015,08,13,11,19,19.40
2015,08,13,11,20,19.40
2015,08,13,11,21,19.40
2015,08,13,11,22,19.50
2015,08,13,11,23,19.60
2015,08,13,11,24,19.70
2015,08,13,11,25,19.80
2015,08,13,11,26,19.80
2015,08,13,11,27,19.80
2015,08,13,11,28,19.80
2015,08,13,11,29,19.80
2015,08,13,11,30,19.80
2015,08,13,11,31,19.80
2015,08,13,11,32,19.80
2015,08,13,11,33,19.90
2015,08,13,11,34,20.00
2015,08,13,11,35,20.00
2015,08,13,11,36,20.10
2015,08,13,11,37,20.00
2015,08,13,11,38,19.80
2015,08,13,11,39,19.70
2015,08,13,11,40,19.70
2015,08,13,11,41,19.60
2015,08,13,11,42,19.50
2015,08,13,11,43,19.50
2015,08,13,11,44,19.50
2015,08,13,11,45,19.50
2015,08,13,11,46,19.60
2015,08,13,11,47,19.60
2015,08,13,11,48,19.70
2015,08,13,11,49,19.80
2015,08,13,11,50,19.90
2015,08,13,11,51,20.00
2015,08,13,11,52,20.10
2015,08,13,11,53,20.10
2015,08,13,11,54,20.10
2015,08,13,11,55,20.20
2015,08,13,11,56,20.20
2015,08,13,11,57,20.10
2015,08,13,11,58,20.10
2015,08,13,11,59,20.10
2015,08,13,12,00,20.10
2015,08,13,12,01,20.20
2015,08,13,12,02,20.30
2015,08,13,12,03,20.40
2015,08,13,12,04,20.50
2015,08,13,12,05,20.60
2015,08,13,12,06,20.70
2015,08,13,12,07,20.80
2015,08,13,12,08,21.00
2015,08,13,12,09,21.00
2015,08,13,12,10,21.10
2015,08,13,12,11,21.10
2015,08,13,12,12,21.10
2015,08,13,12,13,21.10
2015,08,13,12,14,21.00
2015,08,13,12,15,21.10
2015,08,13,12,16,21.10
2015,08,13,12,17,21.10
2015,08,13,12,18,21.10
2015,08,13,12,19,21.00
2015,08,13,12,20,20.90
2015,08,13,12,21,20.90
2015,08,13,12,22,20.90
2015,08,13,12,23,20.90
2015,08,13,12,24,20.80
2015,08,13,12,25,20.80
2015,08,13,12,26,20.70
2015,08,13,12,27,20.80
2015,08,13,12,28,20.80
2015,08,13,12,29,20.80
2015,08,13,12,30,20.80
2015,08,13,12,31,20.80
2015,08,13,12,32,20.90
2015,08,13,12,33,20.90
2015,08,13,12,34,21.00
2015,08,13,12,35,21.10
2015,08,13,12,36,21.20
2015,08,13,12,37,21.20
2015,08,13,12,38,21.30
2015,08,13,12,39,21.30
2015,08,13,12,40,21.30
2015,08,13,12,41,21.40
2015,08,13,12,42,21.40
2015,08,13,12,43,21.50
2015,08,13,12,44,21.60
2015,08,13,12,45,21.60
2015,08,13,12,46,21.70
2015,08,13,12,47,21.70
2015,08,13,12,48,21.70
2015,08,13,12,49,21.80
2015,08,13,12,50,21.90
2015,08,13,12,51,21.90
2015,08,13,12,52,21.90
2015,08,13,12,53,21.90
2015,08,13,12,54,21.90
2015,08,13,12,55,21.90
2015,08,13,12,56,21.90
2015,08,13,12,57,21.90
2015,08,13,12,58,21.90
2015,08,13,12,59,22.00
2015,08,13,13,00,22.10
2015,08,13,13,01,22.10
2015,08,13,13,02,22.10
2015,08,13,13,03,22.20
2015,08,13,13,04,22.30
2015,08,13,13,05,22.30
2015,08,13,13,06,22.30
2015,08,13,13,07,22.40
2015,08,13,13,08,22.50
2015,08,13,13,09,22.50
2015,08,13,13,10,22.60
2015,08,13,13,11,22.60
2015,08,13,13,12,22.60
2015,08,13,13,13,22.40
2015,08,13,13,14,22.30
2015,08,13,13,15,22.20
2015,08,13,13,16,22.20
2015,08,13,13,17,22.10
2015,08,13,13,18,22.00
2015,08,13,13,19,22.00
2015,08,13,13,20,21.90
2015,08,13,13,21,22.00
2015,08,13,13,22,22.10
2015,08,13,13,23,22.20
2015,08,13,13,24,22.30
2015,08,13,13,25,22.30
2015,08,13,13,26,22.40
2015,08,13,13,27,22.40
2015,08,13,13,28,22.40
2015,08,13,13,29,22.50
2015,08,13,13,30,22.60
2015,08,13,13,31,22.60
2015,08,13,13,32,22.60
2015,08,13,13,33,22.50
2015,08,13,13,34,22.40
2015,08,13,13,35,22.40
2015,08,13,13,36,22.40
2015,08,13,13,37,22.40
2015,08,13,13,38,22.40
2015,08,13,13,39,22.50
2015,08,13,13,40,22.60
2015,08,13,13,41,22.70
2015,08,13,13,42,22.80
2015,08,13,13,43,22.80
2015,08,13,13,44,22.90
2015,08,13,13,45,22.90
2015,08,13,13,46,22.80
2015,08,13,13,47,22.80
2015,08,13,13,48,22.70
2015,08,13,13,49,22.70
2015,08,13,13,50,22.70
2015,08,13,13,51,22.80
2015,08,13,13,52,22.90
2015,08,13,13,53,22.90
2015,08,13,13,54,22.90
2015,08,13,13,55,23.00
2015,08,13,13,56,23.00
2015,08,13,13,57,23.10
2015,08,13,13,58,23.10
2015,08,13,13,59,23.20
2015,08,13,14,00,23.20
2015,08,13,14,01,23.30
2015,08,13,14,02,23.30
2015,08,13,14,03,23.30
2015,08,13,14,04,23.30
2015,08,13,14,05,23.30
2015,08,13,14,06,23.30
2015,08,13,14,07,23.30
2015,08,13,14,08,23.30
2015,08,13,14,09,23.40
2015,08,13,14,10,23.40
2015,08,13,14,11,23.30
2015,08,13,14,12,23.30
2015,08,13,14,13,23.30
2015,08,13,14,14,23.40
2015,08,13,14,15,23.40
2015,08,13,14,16,23.40
2015,08,13,14,17,23.40
2015,08,13,14,18,23.40
2015,08,13,14,19,23.50
2015,08,13,14,20,23.60
2015,08,13,14,21,23.70
2015,08,13,14,22,23.80
2015,08,13,14,23,23.80
2015,08,13,14,24,23.80
2015,08,13,14,25,23.80
2015,08,13,14,26,23.90
2015,08,13,14,27,23.90
2015,08,13,14,28,23.90
2015,08,13,14,29,23.90
2015,08,13,14,30,23.90
2015,08,13,14,31,23.90
2015,08,13,14,32,23.90
2015,08,13,14,33,23.90
2015,08,13,14,34,23.90
2015,08,13,14,35,23.80
2015,08,13,14,36,23.80
2015,08,13,14,37,23.80
2015,08,13,14,38,23.90
2015,08,13,14,39,23.90
2015,08,13,14,40,23.80
2015,08,13,14,41,23.80
2015,08,13,14,42,23.80
2015,08,13,14,43,23.70
2015,08,13,14,44,23.70
2015,08,13,14,45,23.60
2015,08,13,14,46,23.60
2015,08,13,14,47,23.60
2015,08,13,14,48,23.60
2015,08,13,14,49,23.60
2015,08,13,14,50,23.70
2015,08,13,14,51,23.80
2015,08,13,14,52,23.90
2015,08,13,14,53,24.00
2015,08,13,14,54,24.10
2015,08,13,14,55,24.20
2015,08,13,14,56,24.30
2015,08,13,14,57,24.30
2015,08,13,14,58,24.30
2015,08,13,14,59,24.20
2015,08,13,15,00,24.10
2015,08,13,15,01,24.10
2015,08,13,15,02,24.10
2015,08,13,15,03,24.10
2015,08,13,15,04,24.10
2015,08,13,15,05,24.10
2015,08,13,15,06,24.10
2015,08,13,15,07,24.10
2015,08,13,15,08,24.10
2015,08,13,15,09,24.00
2015,08,13,15,10,24.00
2015,08,13,15,11,24.10
2015,08,13,15,12,24.10
2015,08,13,15,13,24.10
2015,08,13,15,14,24.10
2015,08,13,15,15,24.10
2015,08,13,15,16,24.20
2015,08,13,15,17,24.20
2015,08,13,15,18,24.30
2015,08,13,15,19,24.40
2015,08,13,15,20,24.50
2015,08,13,15,21,24.60
2015,08,13,15,22,24.70
2015,08,13,15,23,24.70
2015,08,13,15,24,24.80
2015,08,13,15,25,24.80
2015,08,13,15,26,24.90
2015,08,13,15,27,24.90
2015,08,13,15,28,25.00
2015,08,13,15,29,25.10
2015,08,13,15,30,25.10
2015,08,13,15,31,25.10
2015,08,13,15,32,25.10
2015,08,13,15,33,25.00
2015,08,13,15,34,25.00
2015,08,13,15,35,25.00
2015,08,13,15,36,25.00
2015,08,13,15,37,25.10
2015,08,13,15,38,25.10
2015,08,13,15,39,25.10
2015,08,13,15,40,25.00
2015,08,13,15,41,25.00
2015,08,13,15,42,24.90
2015,08,13,15,43,24.90
2015,08,13,15,44,24.90
2015,08,13,15,45,24.90
2015,08,13,15,46,24.90
2015,08,13,15,47,24.90
2015,08,13,15,48,24.90
2015,08,13,15,49,24.90
2015,08,13,15,50,24.90
2015,08,13,15,51,25.00
2015,08,13,15,52,25.00
2015,08,13,15,53,25.10
2015,08,13,15,54,25.20
2015,08,13,15,55,25.20
2015,08,13,15,56,25.30
2015,08,13,15,57,25.40
2015,08,13,15,58,25.50
2015,08,13,15,59,25.60
2015,08,13,16,00,25.60
2015,08,13,16,01,25.60
2015,08,13,16,02,25.40
2015,08,13,16,03,25.30
2015,08,13,16,04,25.30
2015,08,13,16,05,25.40
2015,08,13,16,06,25.40
2015,08,13,16,07,25.50
2015,08,13,16,08,25.50
2015,08,13,16,09,25.50
2015,08,13,16,10,25.50
2015,08,13,16,11,25.40
2015,08,13,16,12,25.40
2015,08,13,16,13,25.40
2015,08,13,16,14,25.40
2015,08,13,16,15,25.40
2015,08,13,16,16,25.30
2015,08,13,16,17,25.20
2015,08,13,16,18,25.20
2015,08,13,16,19,25.20
2015,08,13,16,20,25.10
2015,08,13,16,21,25.20
2015,08,13,16,22,25.20
2015,08,13,16,23,25.20
2015,08,13,16,24,25.10
2015,08,13,16,25,25.10
2015,08,13,16,26,25.10
2015,08,13,16,27,25.00
2015,08,13,16,28,24.90
2015,08,13,16,29,24.90
2015,08,13,16,30,24.90
2015,08,13,16,31,24.90
2015,08,13,16,32,24.90
2015,08,13,16,33,24.90
2015,08,13,16,34,24.80
2015,08,13,16,35,24.80
2015,08,13,16,36,24.80
2015,08,13,16,37,24.80
2015,08,13,16,38,24.80
2015,08,13,16,39,24.80
2015,08,13,16,40,24.80
2015,08,13,16,41,24.80
2015,08,13,16,42,24.70
2015,08,13,16,43,24.70
2015,08,13,16,44,24.60
2015,08,13,16,45,24.50
2015,08,13,16,46,24.50
2015,08,13,16,47,24.50
2015,08,13,16,48,24.60
2015,08,13,16,49,24.60
2015,08,13,16,50,24.60
2015,08,13,16,51,24.70
2015,08,13,16,52,24.80
2015,08,13,16,53,24.90
2015,08,13,16,54,25.00
2015,08,13,16,55,25.00
2015,08,13,16,56,25.10
2015,08,13,16,57,25.20
2015,08,13,16,58,25.30
2015,08,13,16,59,25.40
2015,08,13,17,00,25.50
2015,08,13,17,01,25.70
2015,08,13,17,02,25.80
2015,08,13,17,03,25.80
2015,08,13,17,04,25.90
2015,08,13,17,05,25.90
2015,08,13,17,06,25.90
2015,08,13,17,07,25.80
2015,08,13,17,08,25.90
2015,08,13,17,09,25.90
2015,08,13,17,10,25.90
2015,08,13,17,11,25.90
2015,08,13,17,12,25.80
2015,08,13,17,13,25.80
2015,08,13,17,14,25.80
2015,08,13,17,15,25.70
2015,08,13,17,16,25.60
2015,08,13,17,17,25.50
2015,08,13,17,18,25.40
2015,08,13,17,19,25.30